Terminal Aerodrome Forecast
Issued by NWS

Home | Current Version | Previous Version | Text Only | Print | Product List | Glossary On
Versions: 1 2 3 4 5 6 7 8 9 10 11 12 13 14 15
164
FTUS45 KABQ 230520
TAFSAF
TAF
KSAF 230520Z 2306/2406 01010KT P6SM SKC
     FM230800 12010KT P6SM SCT025 SCT090
      TEMPO 2310/2314 BKN025
     FM231500 16010KT P6SM SCT050 SCT090
     FM231900 19010KT P6SM FEW090
     FM232100 26012G20KT P6SM SKC
     FM240200 13008KT P6SM SKC=

USA.gov is the U.S. government's official web portal to all federal, state and local government web resources and services.